TimeCDT,TemperatureF,Dew PointF,Humidity,Sea Level PressureIn,VisibilityMPH,Wind Direction,Wind SpeedMPH,Gust SpeedMPH,PrecipitationIn,Events,Conditions,WindDirDegrees,DateUTC
12:55 AM,65.5,57.4,75,29.74,10.0,SSW,11.5,-,N/A,,Scattered Clouds,210,2012-03-30 05:55:00
1:55 AM,64.9,57.9,78,29.73,10.0,SSW,9.2,-,N/A,,Clear,210,2012-03-30 06:55:00
2:55 AM,65.8,57.9,76,29.73,10.0,SSW,16.1,-,N/A,,Clear,210,2012-03-30 07:55:00
3:55 AM,67.3,58.3,73,29.72,10.0,SW,15.0,-,N/A,,Clear,220,2012-03-30 08:55:00
4:55 AM,68.0,59.4,74,29.71,10.0,SW,17.3,-,N/A,,Scattered Clouds,230,2012-03-30 09:55:00
5:55 AM,67.3,59.7,77,29.73,10.0,WSW,5.8,-,N/A,,Scattered Clouds,250,2012-03-30 10:55:00
6:55 AM,65.3,60.4,84,29.74,10.0,SW,6.9,-,N/A,,Mostly Cloudy,230,2012-03-30 11:55:00
7:25 AM,64.4,60.8,88,29.76,10.0,WSW,6.9,-,N/A,,Mostly Cloudy,240,2012-03-30 12:25:00
7:55 AM,65.8,61.3,85,29.77,10.0,WSW,5.8,-,N/A,,Overcast,240,2012-03-30 12:55:00
8:43 AM,66.2,62.6,88,29.77,10.0,West,5.8,-,N/A,,Scattered Clouds,260,2012-03-30 13:43:00
8:55 AM,67.5,62.6,84,29.77,10.0,West,6.9,-,N/A,,Scattered Clouds,270,2012-03-30 13:55:00
9:24 AM,68.0,62.6,83,29.78,10.0,Variable,6.9,-,N/A,,Mostly Cloudy,0,2012-03-30 14:24:00
9:55 AM,66.7,64.0,91,29.79,10.0,North,10.4,-,N/A,,Mostly Cloudy,350,2012-03-30 14:55:00
10:55 AM,68.2,63.9,86,29.80,10.0,NNW,5.8,-,N/A,,Mostly Cloudy,340,2012-03-30 15:55:00
11:14 AM,68.0,64.4,88,29.81,10.0,NNW,8.1,-,N/A,,Mostly Cloudy,330,2012-03-30 16:14:00
11:37 AM,69.8,62.6,78,29.80,10.0,North,4.6,-,N/A,,Scattered Clouds,350,2012-03-30 16:37:00
11:55 AM,70.3,62.8,77,29.80,10.0,West,4.6,-,N/A,,Mostly Cloudy,270,2012-03-30 16:55:00
12:02 PM,71.6,62.6,73,29.80,10.0,NW,5.8,-,N/A,,Mostly Cloudy,320,2012-03-30 17:02:00
12:14 PM,71.6,62.6,73,29.80,10.0,NW,3.5,-,N/A,,Scattered Clouds,310,2012-03-30 17:14:00
12:26 PM,71.6,60.8,69,29.80,10.0,NW,8.1,-,N/A,,Mostly Cloudy,320,2012-03-30 17:26:00
12:34 PM,71.6,60.8,69,29.80,10.0,NNW,9.2,-,N/A,,Scattered Clouds,340,2012-03-30 17:34:00
12:55 PM,72.5,60.3,65,29.79,10.0,NW,6.9,-,N/A,,Partly Cloudy,320,2012-03-30 17:55:00
1:55 PM,74.3,61.3,64,29.78,6.0,North,10.4,-,N/A,,Haze,360,2012-03-30 18:55:00
4:55 PM,75.4,57.6,54,29.76,10.0,NE,4.6,-,N/A,,Clear,40,2012-03-30 21:55:00
5:55 PM,75.4,57.2,53,29.76,10.0,ENE,3.5,-,N/A,,Clear,70,2012-03-30 22:55:00
6:55 PM,73.9,55.6,53,29.76,10.0,ENE,3.5,-,N/A,,Clear,60,2012-03-30 23:55:00
7:55 PM,67.5,59.5,76,29.77,10.0,Calm,Calm,-,N/A,,Clear,0,2012-03-31 00:55:00
8:55 PM,66.2,57.6,74,29.78,9.0,Calm,Calm,-,N/A,,Clear,0,2012-03-31 01:55:00
8:56 PM,66.2,59.0,78,29.78,9.0,Calm,Calm,-,N/A,,Light Drizzle,0,2012-03-31 01:56:00
8:57 PM,66.2,59.0,78,29.78,9.0,Calm,Calm,-,N/A,,Clear,0,2012-03-31 01:57:00
9:55 PM,64.6,56.8,76,29.79,10.0,Calm,Calm,-,0.00,,Clear,0,2012-03-31 02:55:00
10:55 PM,61.5,57.6,87,29.81,10.0,Calm,Calm,-,N/A,,Clear,0,2012-03-31 03:55:00
11:55 PM,60.6,58.3,92,29.81,10.0,East,3.5,-,N/A,,Clear,90,2012-03-31 04:55:00